INTELSAT 30 (IS-30)

Last updated on Wed Sep 17 2025 00:02:48 GMT+0000 (Coordinated Universal Time)

1 40271U 14062A 25259.56483860 .00000000 00000+0 00000+0 0 9998 2 40271 0.0197 132.2164 0001457 277.6127 54.2078 1.00267929 4041
UTC large
Height (km)
Speed (km/s)
/
Latitude / Longitude
Inclination (degrees)
Orbital Period (minutes)
Azimuth
Elevation
Range (km)
Doppler Factor

Next 0 passes for location: London (51.5072 / 0.1276)

Sorry there are no passes over London.